Time,TemperatureF,DewpointF,PressureIn,WindDirection,WindDirectionDegrees,WindSpeedMPH,WindSpeedGustMPH,Humidity,HourlyPrecipIn,Conditions,Clouds,dailyrainin,SoftwareType,DateUTC
2013-01-15 00:04:00,65.0,61.0,-100.00,SSW,195,1.0,8.0,85,-99.99,,,-99.99,,2013-01-15 05:04:00,
2013-01-15 00:12:00,65.0,61.0,-100.00,SSW,200,2.0,13.0,87,-99.99,,,-99.99,,2013-01-15 05:12:00,
2013-01-15 00:22:00,65.0,62.0,-100.00,South,190,3.0,13.0,88,-99.99,,,-99.99,,2013-01-15 05:22:00,
2013-01-15 00:33:00,65.0,62.0,-100.00,South,190,2.0,13.0,89,-99.99,,,-99.99,,2013-01-15 05:33:00,
2013-01-15 00:42:00,65.0,62.0,-100.00,South,190,2.0,8.0,90,-99.99,,,-99.99,,2013-01-15 05:42:00,
2013-01-15 00:52:00,65.0,62.0,-100.00,SSW,200,4.0,7.0,91,-99.99,,,-99.99,,2013-01-15 05:52:00,
2013-01-15 01:03:00,65.0,62.0,-100.00,SSW,200,5.0,6.0,91,-99.99,,,-99.99,,2013-01-15 06:03:00,
2013-01-15 01:12:00,65.0,62.0,-100.00,SSW,210,4.0,6.0,91,-99.99,,,-99.99,,2013-01-15 06:12:00,
2013-01-15 01:22:00,65.0,62.0,-100.00,SW,220,4.0,6.0,91,-99.99,,,-99.99,,2013-01-15 06:22:00,
2013-01-15 01:33:00,65.0,62.0,-100.00,SSW,210,5.0,8.0,91,-99.99,,,-99.99,,2013-01-15 06:33:00,
2013-01-15 01:43:00,65.0,63.0,-100.00,SSW,200,5.0,7.0,92,-99.99,,,-99.99,,2013-01-15 06:43:00,
2013-01-15 01:52:00,65.0,63.0,-100.00,SW,225,5.0,7.0,92,-99.99,,,-99.99,,2013-01-15 06:52:00,
2013-01-15 02:02:00,65.0,63.0,-100.00,SW,220,4.0,7.0,92,-99.99,,,-99.99,,2013-01-15 07:02:00,
2013-01-15 02:12:00,65.0,63.0,-100.00,SSW,210,4.0,6.0,92,-99.99,,,-99.99,,2013-01-15 07:12:00,
2013-01-15 02:22:00,65.0,63.0,-100.00,SW,215,4.0,7.0,92,-99.99,,,-99.99,,2013-01-15 07:22:00,
2013-01-15 02:33:00,66.0,63.0,-100.00,SSW,200,4.0,8.0,92,-99.99,,,-99.99,,2013-01-15 07:33:00,
2013-01-15 02:42:00,66.0,63.0,-100.00,SW,225,5.0,7.0,92,-99.99,,,-99.99,,2013-01-15 07:42:00,
2013-01-15 02:52:00,66.0,63.0,-100.00,SSW,200,4.0,7.0,92,-99.99,,,-99.99,,2013-01-15 07:52:00,
2013-01-15 03:02:00,65.0,63.0,-100.00,SSW,210,2.0,8.0,92,-99.99,,,-99.99,,2013-01-15 08:02:00,
2013-01-15 03:12:00,65.0,62.0,-100.00,SW,230,0.0,7.0,92,-99.99,,,-99.99,,2013-01-15 08:12:00,
2013-01-15 03:22:00,64.0,62.0,-100.00,SW,225,1.0,7.0,92,-99.99,,,-99.99,,2013-01-15 08:22:00,
2013-01-15 03:33:00,64.0,61.0,-100.00,SW,220,1.0,7.0,92,-99.99,,,-99.99,,2013-01-15 08:33:00,
2013-01-15 03:40:00,64.0,62.0,-100.00,WSW,240,1.0,7.0,92,-99.99,,,-99.99,,2013-01-15 08:40:00,
2013-01-15 03:43:00,64.0,61.0,-100.00,SW,225,0.0,7.0,92,-99.99,,,-99.99,,2013-01-15 08:43:00,
2013-01-15 03:52:00,64.0,62.0,-100.00,WSW,245,0.0,6.0,92,-99.99,,,-99.99,,2013-01-15 08:52:00,
2013-01-15 04:02:00,64.0,62.0,-100.00,WSW,245,1.0,15.0,92,-99.99,,,-99.99,,2013-01-15 09:02:00,
2013-01-15 04:12:00,64.0,62.0,-100.00,WSW,240,1.0,7.0,92,-99.99,,,-99.99,,2013-01-15 09:12:00,
2013-01-15 04:22:00,64.0,62.0,-100.00,WSW,240,1.0,7.0,92,-99.99,,,-99.99,,2013-01-15 09:22:00,
2013-01-15 04:33:00,64.0,62.0,-100.00,WSW,240,1.0,7.0,92,-99.99,,,-99.99,,2013-01-15 09:33:00,
2013-01-15 11:03:00,71.0,62.0,-100.00,SW,235,4.0,18.0,71,-99.99,,,-99.99,,2013-01-15 16:03:00,
2013-01-15 11:12:00,72.0,61.0,-100.00,SW,225,4.0,15.0,70,-99.99,,,-99.99,,2013-01-15 16:12:00,
2013-01-15 11:23:00,72.0,62.0,-100.00,SW,220,6.0,14.0,69,-99.99,,,-99.99,,2013-01-15 16:23:00,
2013-01-15 11:33:00,72.0,61.0,-100.00,SW,235,6.0,14.0,68,-99.99,,,-99.99,,2013-01-15 16:33:00,
2013-01-15 11:43:00,73.0,61.0,-100.00,SW,225,5.0,16.0,68,-99.99,,,-99.99,,2013-01-15 16:43:00,
2013-01-15 11:53:00,73.0,61.0,-100.00,SW,225,4.0,15.0,67,-99.99,,,-99.99,,2013-01-15 16:53:00,
2013-01-15 12:04:00,73.0,61.0,-100.00,SW,225,3.0,14.0,67,-99.99,,,-99.99,,2013-01-15 17:04:00,
2013-01-15 12:13:00,73.0,61.0,-100.00,SW,215,2.0,12.0,67,-99.99,,,-99.99,,2013-01-15 17:13:00,
2013-01-15 12:23:00,73.0,61.0,-100.00,SW,220,4.0,13.0,67,-99.99,,,-99.99,,2013-01-15 17:23:00,
2013-01-15 12:33:00,73.0,62.0,-100.00,SW,215,4.0,11.0,67,-99.99,,,-99.99,,2013-01-15 17:33:00,
2013-01-15 12:43:00,74.0,62.0,-100.00,SSW,195,2.0,6.0,66,-99.99,,,-99.99,,2013-01-15 17:43:00,
2013-01-15 12:53:00,73.0,62.0,-100.00,SSW,200,3.0,9.0,67,-99.99,,,-99.99,,2013-01-15 17:53:00,
2013-01-15 13:03:00,73.0,62.0,-100.00,SSW,200,4.0,14.0,67,-99.99,,,-99.99,,2013-01-15 18:03:00,
2013-01-15 13:13:00,73.0,61.0,-100.00,SSW,195,4.0,13.0,67,-99.99,,,-99.99,,2013-01-15 18:13:00,
2013-01-15 13:23:00,73.0,61.0,-100.00,SSW,195,5.0,15.0,68,-99.99,,,-99.99,,2013-01-15 18:23:00,
2013-01-15 13:33:00,72.0,62.0,-100.00,SSW,210,6.0,16.0,70,-99.99,,,-99.99,,2013-01-15 18:33:00,
2013-01-15 13:43:00,72.0,62.0,-100.00,SSW,205,4.0,18.0,70,-99.99,,,-99.99,,2013-01-15 18:43:00,
2013-01-15 13:53:00,72.0,62.0,-100.00,SW,215,7.0,16.0,70,-99.99,,,-99.99,,2013-01-15 18:53:00,
2013-01-15 14:03:00,73.0,61.0,-100.00,South,190,7.0,16.0,68,-99.99,,,-99.99,,2013-01-15 19:03:00,
2013-01-15 14:13:00,72.0,62.0,-100.00,South,190,8.0,17.0,69,-99.99,,,-99.99,,2013-01-15 19:13:00,
2013-01-15 14:23:00,73.0,62.0,-100.00,SSW,210,4.0,15.0,68,-99.99,,,-99.99,,2013-01-15 19:23:00,
2013-01-15 14:33:00,73.0,62.0,-100.00,South,185,4.0,16.0,68,-99.99,,,-99.99,,2013-01-15 19:33:00,
2013-01-15 14:43:00,73.0,62.0,-100.00,SSW,210,6.0,19.0,68,-99.99,,,-99.99,,2013-01-15 19:43:00,
2013-01-15 14:53:00,72.0,62.0,-100.00,SW,215,6.0,16.0,69,-99.99,,,-99.99,,2013-01-15 19:53:00,
2013-01-15 15:04:00,72.0,62.0,-100.00,SSW,210,5.0,16.0,69,-99.99,,,-99.99,,2013-01-15 20:04:00,
2013-01-15 15:12:00,72.0,62.0,-100.00,SW,215,5.0,14.0,69,-99.99,,,-99.99,,2013-01-15 20:12:00,
2013-01-15 15:23:00,72.0,61.0,-100.00,SW,220,6.0,19.0,70,-99.99,,,-99.99,,2013-01-15 20:23:00,
2013-01-15 15:33:00,72.0,62.0,-100.00,SSW,210,2.0,13.0,70,-99.99,,,-99.99,,2013-01-15 20:33:00,
2013-01-15 15:43:00,72.0,61.0,-100.00,SW,225,6.0,14.0,68,-99.99,,,-99.99,,2013-01-15 20:43:00,
2013-01-15 15:53:00,73.0,62.0,-100.00,South,180,2.0,14.0,68,-99.99,,,-99.99,,2013-01-15 20:53:00,
2013-01-15 16:03:00,73.0,61.0,-100.00,SW,215,6.0,16.0,68,-99.99,,,-99.99,,2013-01-15 21:03:00,
2013-01-15 16:13:00,72.0,61.0,-100.00,SW,215,9.0,16.0,70,-99.99,,,-99.99,,2013-01-15 21:13:00,
2013-01-15 16:23:00,72.0,62.0,-100.00,SSW,210,4.0,19.0,71,-99.99,,,-99.99,,2013-01-15 21:23:00,
2013-01-15 16:34:00,71.0,62.0,-100.00,SSW,200,2.0,14.0,72,-99.99,,,-99.99,,2013-01-15 21:34:00,
2013-01-15 16:43:00,71.0,62.0,-100.00,SSW,205,8.0,16.0,73,-99.99,,,-99.99,,2013-01-15 21:43:00,
2013-01-15 16:53:00,71.0,62.0,-100.00,SSW,205,8.0,16.0,73,-99.99,,,-99.99,,2013-01-15 21:53:00,
2013-01-15 17:03:00,71.0,62.0,-100.00,SSW,205,4.0,16.0,74,-99.99,,,-99.99,,2013-01-15 22:03:00,
2013-01-15 17:12:00,70.0,62.0,-100.00,SSW,205,10.0,17.0,76,-99.99,,,-99.99,,2013-01-15 22:12:00,
2013-01-15 17:23:00,70.0,62.0,-100.00,SSW,205,10.0,17.0,76,-99.99,,,-99.99,,2013-01-15 22:23:00,
2013-01-15 17:33:00,69.0,63.0,-100.00,SSW,205,7.0,16.0,79,-99.99,,,-99.99,,2013-01-15 22:33:00,
2013-01-15 17:43:00,69.0,63.0,-100.00,SW,220,8.0,16.0,80,-99.99,,,-99.99,,2013-01-15 22:43:00,
2013-01-15 17:53:00,69.0,63.0,-100.00,South,190,3.0,14.0,81,-99.99,,,-99.99,,2013-01-15 22:53:00,
2013-01-15 18:03:00,69.0,63.0,-100.00,SSW,195,3.0,7.0,82,-99.99,,,-99.99,,2013-01-15 23:03:00,
2013-01-15 18:13:00,68.0,63.0,-100.00,SSW,205,2.0,6.0,83,-99.99,,,-99.99,,2013-01-15 23:13:00,
2013-01-15 18:23:00,68.0,63.0,-100.00,SSW,210,3.0,6.0,83,-99.99,,,-99.99,,2013-01-15 23:23:00,
2013-01-15 18:33:00,68.0,62.0,-100.00,SW,215,2.0,7.0,83,-99.99,,,-99.99,,2013-01-15 23:33:00,
2013-01-15 18:43:00,68.0,63.0,-100.00,SW,220,4.0,10.0,84,-99.99,,,-99.99,,2013-01-15 23:43:00,
2013-01-15 18:53:00,67.0,62.0,-100.00,SSW,205,4.0,11.0,84,-99.99,,,-99.99,,2013-01-15 23:53:00,
2013-01-15 19:03:00,67.0,62.0,-100.00,South,175,4.0,6.0,85,-99.99,,,-99.99,,2013-01-16 00:03:00,
2013-01-15 19:13:00,66.0,63.0,-100.00,South,185,3.0,10.0,88,-99.99,,,-99.99,,2013-01-16 00:13:00,
2013-01-15 19:22:00,66.0,63.0,-100.00,South,180,2.0,9.0,89,-99.99,,,-99.99,,2013-01-16 00:22:00,
2013-01-15 19:33:00,66.0,62.0,-100.00,SSW,195,2.0,8.0,89,-99.99,,,-99.99,,2013-01-16 00:33:00,
2013-01-15 19:43:00,65.0,62.0,-100.00,South,170,3.0,6.0,89,-99.99,,,-99.99,,2013-01-16 00:43:00,
2013-01-15 19:52:00,65.0,62.0,-100.00,South,175,4.0,6.0,89,-99.99,,,-99.99,,2013-01-16 00:52:00,
2013-01-15 20:03:00,65.0,62.0,-100.00,South,190,4.0,6.0,89,-99.99,,,-99.99,,2013-01-16 01:03:00,
2013-01-15 20:12:00,65.0,62.0,-100.00,South,180,4.0,6.0,89,-99.99,,,-99.99,,2013-01-16 01:12:00,
2013-01-15 20:22:00,65.0,62.0,-100.00,SSW,195,3.0,7.0,89,-99.99,,,-99.99,,2013-01-16 01:22:00,
2013-01-15 20:33:00,64.0,61.0,-100.00,SSE,155,4.0,7.0,90,-99.99,,,-99.99,,2013-01-16 01:33:00,
2013-01-15 20:43:00,64.0,61.0,-100.00,SSE,150,3.0,7.0,90,-99.99,,,-99.99,,2013-01-16 01:43:00,
2013-01-15 20:52:00,65.0,62.0,-100.00,SSW,195,3.0,7.0,90,-99.99,,,-99.99,,2013-01-16 01:52:00,
2013-01-15 21:03:00,65.0,62.0,-100.00,South,185,1.0,7.0,90,-99.99,,,-99.99,,2013-01-16 02:03:00,
2013-01-15 21:12:00,65.0,62.0,-100.00,SSW,195,4.0,7.0,90,-99.99,,,-99.99,,2013-01-16 02:12:00,
2013-01-15 21:23:00,65.0,62.0,-100.00,South,175,4.0,8.0,90,-99.99,,,-99.99,,2013-01-16 02:23:00,
2013-01-15 21:33:00,65.0,62.0,-100.00,South,180,2.0,7.0,90,-99.99,,,-99.99,,2013-01-16 02:33:00,
2013-01-15 21:43:00,65.0,62.0,-100.00,SSE,160,1.0,11.0,91,-99.99,,,-99.99,,2013-01-16 02:43:00,
2013-01-15 21:53:00,65.0,62.0,-100.00,South,175,1.0,8.0,91,-99.99,,,-99.99,,2013-01-16 02:53:00,
2013-01-15 22:03:00,65.0,63.0,-100.00,South,175,1.0,8.0,92,-99.99,,,-99.99,,2013-01-16 03:03:00,
2013-01-15 22:12:00,65.0,63.0,-100.00,South,170,1.0,7.0,92,-99.99,,,-99.99,,2013-01-16 03:12:00,
2013-01-15 22:22:00,65.0,63.0,-100.00,SSE,165,1.0,10.0,92,-99.99,,,-99.99,,2013-01-16 03:22:00,
2013-01-15 22:33:00,65.0,63.0,-100.00,South,175,0.0,7.0,92,-99.99,,,-99.99,,2013-01-16 03:33:00,
2013-01-15 22:43:00,65.0,63.0,-100.00,SSE,155,1.0,9.0,92,-99.99,,,-99.99,,2013-01-16 03:43:00,
2013-01-15 22:52:00,66.0,64.0,-100.00,SSE,165,9.0,17.0,93,-99.99,,,-99.99,,2013-01-16 03:52:00,
2013-01-15 23:02:00,65.0,63.0,-100.00,SSE,160,7.0,20.0,93,-99.99,,,-99.99,,2013-01-16 04:02:00,
2013-01-15 23:12:00,65.0,63.0,-100.00,SSE,160,7.0,18.0,93,-99.99,,,-99.99,,2013-01-16 04:12:00,
2013-01-15 23:22:00,65.0,63.0,-100.00,SSE,165,4.0,19.0,93,-99.99,,,-99.99,,2013-01-16 04:22:00,
2013-01-15 23:33:00,65.0,63.0,-100.00,South,170,4.0,19.0,93,-99.99,,,-99.99,,2013-01-16 04:33:00,
2013-01-15 23:42:00,65.0,63.0,-100.00,SSE,160,8.0,19.0,93,-99.99,,,-99.99,,2013-01-16 04:42:00,
2013-01-15 23:52:00,66.0,64.0,-100.00,SSE,155,19.0,22.0,93,-99.99,,,-99.99,,2013-01-16 04:52:00,